TimeEST,TemperatureF,Dew PointF,Humidity,Sea Level PressureIn,VisibilityMPH,Wind Direction,Wind SpeedMPH,Gust SpeedMPH,PrecipitationIn,Events,Conditions,WindDirDegrees,DateUTC
12:53 AM,24.1,14.0,65,30.08,10.0,WNW,17.3,-,N/A,,Clear,290,2001-01-01 05:53:00
1:53 AM,23.0,14.0,68,30.11,10.0,WSW,6.9,-,N/A,,Partly Cloudy,250,2001-01-01 06:53:00
2:53 AM,21.0,12.9,71,30.12,10.0,West,8.1,-,N/A,,Clear,270,2001-01-01 07:53:00
3:53 AM,19.9,12.9,74,30.13,10.0,WSW,5.8,-,N/A,,Clear,250,2001-01-01 08:53:00
4:53 AM,19.0,12.9,77,30.14,10.0,WNW,8.1,-,N/A,,Clear,290,2001-01-01 09:53:00
5:53 AM,19.9,14.0,78,30.16,10.0,WSW,9.2,-,N/A,,Clear,250,2001-01-01 10:53:00
6:53 AM,17.1,12.0,81,30.19,10.0,WSW,5.8,-,N/A,,Clear,250,2001-01-01 11:53:00
7:53 AM,16.0,10.9,81,30.20,10.0,WNW,8.1,-,N/A,,Clear,290,2001-01-01 12:53:00
8:53 AM,21.9,16.0,78,30.22,10.0,West,6.9,-,N/A,,Clear,280,2001-01-01 13:53:00
9:53 AM,28.0,17.1,63,30.23,10.0,WNW,16.1,-,N/A,,Clear,290,2001-01-01 14:53:00
10:53 AM,30.9,17.1,57,30.22,10.0,NW,12.7,-,N/A,,Clear,310,2001-01-01 15:53:00
11:53 AM,32.0,15.1,50,30.21,10.0,NW,11.5,-,N/A,,Clear,320,2001-01-01 16:53:00
12:53 PM,34.0,16.0,48,30.18,10.0,NW,13.8,-,N/A,,Clear,310,2001-01-01 17:53:00
1:53 PM,34.0,15.1,46,30.17,10.0,NW,12.7,-,N/A,,Clear,320,2001-01-01 18:53:00
2:53 PM,33.1,15.1,48,30.19,10.0,NW,10.4,-,N/A,,Mostly Cloudy,320,2001-01-01 19:53:00
3:53 PM,33.1,18.0,54,30.20,10.0,WNW,8.1,-,N/A,,Overcast,300,2001-01-01 20:53:00
4:53 PM,30.9,16.0,54,30.22,10.0,West,5.8,-,N/A,,Overcast,280,2001-01-01 21:53:00
5:53 PM,28.9,18.0,64,30.23,10.0,West,5.8,-,N/A,,Overcast,280,2001-01-01 22:53:00
6:53 PM,28.0,17.1,63,30.24,10.0,West,4.6,-,N/A,,Overcast,270,2001-01-01 23:53:00
7:53 PM,27.0,18.0,69,30.24,10.0,West,4.6,-,N/A,,Overcast,270,2001-01-02 00:53:00
8:53 PM,28.0,17.1,63,30.25,10.0,West,8.1,-,N/A,,Overcast,270,2001-01-02 01:53:00
9:53 PM,27.0,18.0,69,30.25,10.0,West,5.8,-,N/A,,Overcast,270,2001-01-02 02:53:00
10:53 PM,27.0,18.0,69,30.26,10.0,NW,5.8,-,N/A,,Overcast,310,2001-01-02 03:53:00
11:53 PM,27.0,17.1,66,30.26,10.0,NW,4.6,-,N/A,,Overcast,320,2001-01-02 04:53:00